Location: Stark Bayou Observatory
(30.3992°N, 88.7844°W)
Time: 05:55:01
(UTC-05:00)

Hubble Space Telescope - Visible Passes

Search period start: 23 March 2019 00:00
Search period end: 02 April 2019 00:00
Orbit: 537 x 540 km, 28.5° (Epoch: 22 March)

Date Brightness Start Highest point End Pass type
(mag) Time Alt. Az. Time Alt. Az. Time Alt. Az.
23 Mar 2.1 20:08:29 10° SW 20:11:52 24° SSE 20:13:02 21° SE visible
24 Mar 1.9 19:57:42 10° SW 20:01:19 29° SSE 20:03:28 18° ESE visible
24 Mar 3.6 21:38:11 10° WSW 21:38:49 14° WSW 21:38:49 14° WSW visible
25 Mar 1.6 19:47:00 10° SW 19:50:46 35° SSE 19:53:49 14° ESE visible
25 Mar 3.0 21:27:40 10° WSW 21:29:10 21° WSW 21:29:10 21° WSW visible
26 Mar 1.4 19:36:21 10° SW 19:40:15 41° SSE 19:44:06 10° E visible
26 Mar 2.4 21:17:11 10° W 21:19:27 31° WSW 21:19:27 31° WSW visible
27 Mar 1.3 19:25:46 10° WSW 19:29:45 47° SSE 19:33:44 10° E visible
27 Mar 1.7 21:06:42 10° W 21:09:41 44° WSW 21:09:41 44° WSW visible
28 Mar 1.0 20:56:13 10° W 20:59:53 60° SW 20:59:53 60° SW visible
29 Mar 0.8 20:45:45 10° W 20:49:51 63° S 20:50:02 62° SSE visible
30 Mar 0.9 20:35:17 10° W 20:39:22 59° S 20:40:11 47° SE visible
31 Mar 1.1 20:24:50 10° W 20:28:52 53° S 20:30:20 34° SE visible
01 Apr 1.3 20:14:23 10° W 20:18:21 46° SSW 20:20:29 24° SE visible
